Wind_Speed
19 23 25 27 28 30 30 31 30 31 33 33 31 33 35 34 32 29 28 30 30 27 24 23 24 21 19 21 23 23 23 25 27 27 28 27 25 26 27 26 26 26 23 22 21 21 20 20 21 21 19 18 16 16 16 15 15 15 14 13 13 12 12 11 9 7 6 6 9 10 10 11 12 12 13 14 15 19 20 17 17 21 21 20 22
16 20 22 25 27 29 29 29 29 31 34 34 33 32 32 34 32 28 29 31 30 27 25 24 25 22 21 24 27 28 28 28 28 29 30 27 25 26 26 26 26 25 23 22 22 21 21 21 21 20 19 19 18 16 16 15 15 15 15 14 13 13 13 13 12 9 8 10 11 11 11 12 12 13 13 14 14 16 20 18 17 19 20 18 20
13 16 20 23 25 27 28 28 30 33 32 33 35 34 31 32 33 30 29 31 31 29 27 26 27 25 23 24 26 28 30 29 30 32 32 30 28 27 27 27 26 24 23 23 22 21 21 20 20 20 19 19 19 18 16 15 15 15 15 15 14 14 13 14 14 10 10 13 13 12 13 13 13 13 13 14 13 13 17 19 17 17 19 19 18
11 13 17 21 23 25 26 28 31 33 32 32 34 33 30 33 37 35 33 32 31 30 29 28 28 28 27 26 25 26 28 29 32 33 32 31 30 28 28 27 27 25 24 22 22 21 21 20 20 20 19 19 20 18 16 15 15 15 15 15 14 14 14 15 15 13 12 12 11 10 12 13 13 13 12 12 13 12 14 16 17 16 17 19 18
10 11 14 18 21 23 25 26 29 32 35 34 33 31 29 33 38 38 36 34 30 28 30 31 29 30 32 30 27 25 24 27 32 32 30 30 30 31 31 29 26 25 23 22 22 22 21 21 21 20 20 20 20 18 17 17 16 16 15 15 15 14 14 14 15 15 14 12 11 10 11 11 12 13 12 12 12 12 13 14 15 15 15 17 17
11 11 13 16 19 22 23 25 25 28 33 34 32 29 27 30 36 37 35 34 31 29 32 33 31 33 34 32 29 27 24 25 31 31 28 28 31 33 32 28 26 26 24 23 24 23 23 23 22 21 22 22 21 19 18 18 18 18 17 16 15 14 15 15 15 15 15 15 14 11 11 12 11 11 13 13 12 12 13 13 13 14 14 16 16
13 13 13 15 18 20 23 25 26 27 28 29 30 30 27 28 34 36 35 34 32 32 34 34 32 33 34 30 27 29 29 30 31 31 28 28 30 32 31 28 27 27 25 24 24 24 24 24 24 24 24 24 24 22 20 20 20 19 18 17 16 15 15 15 15 14 14 16 15 13 13 14 13 13 13 14 13 13 13 13 13 14 15 16 17
14 14 14 15 17 20 22 24 26 27 27 26 29 31 28 28 33 37 36 35 34 34 36 36 32 32 33 29 26 28 31 32 32 32 30 29 29 30 30 28 28 27 26 25 24 25 25 24 25 26 26 26 26 24 23 22 22 21 20 19 18 18 17 16 15 15 14 15 16 16 16 15 14 14 13 14 15 15 15 14 14 14 16 17 18
14 15 15 17 18 19 20 22 24 26 27 26 28 31 30 29 33 37 38 36 35 35 35 35 33 32 33 30 26 27 30 31 32 30 30 30 30 32 34 32 29 28 27 26 25 25 25 25 25 26 27 28 28 27 26 25 24 23 22 22 21 20 20 18 17 16 16 15 15 16 16 15 15 15 15 17 18 17 16 15 14 14 15 15 17
13 15 16 17 18 18 19 20 22 24 25 26 28 30 30 29 30 33 35 34 37 38 35 32 31 31 31 30 28 26 28 31 31 30 31 33 34 36 38 34 30 29 28 27 26 26 26 26 26 27 29 30 30 31 30 28 27 25 22 23 23 22 21 21 20 19 18 17 16 16 16 16 17 18 18 18 18 17 17 16 16 16 14 13 15
14 15 17 17 17 18 18 20 22 23 25 26 27 28 29 28 27 27 29 31 35 36 32 29 29 30 30 31 31 28 28 32 33 33 35 36 35 37 35 30 28 28 28 27 27 26 26 27 27 28 30 31 33 34 33 31 30 28 25 24 24 24 23 22 21 21 20 19 18 17 17 18 18 19 20 20 18 19 18 17 17 18 16 14 13
16 16 17 17 17 18 18 20 22 24 25 26 26 26 25 26 27 27 29 31 31 31 30 28 28 29 30 29 30 30 30 34 38 39 40 41 39 37 33 29 29 29 27 26 26 26 26 27 27 28 29 31 32 32 33 33 32 31 29 27 26 25 24 24 24 22 21 21 20 19 18 18 18 19 21 21 20 20 19 17 17 19 18 16 14
18 16 16 17 17 18 18 20 21 24 26 26 26 25 25 26 27 27 29 31 30 29 30 28 26 29 31 28 28 30 31 35 41 43 44 46 44 39 34 32 32 30 28 29 29 28 28 27 28 29 28 29 30 28 29 31 33 34 33 31 30 28 27 27 26 25 23 22 21 21 21 19 19 19 20 21 20 19 19 18 18 18 18 17 16
17 16 15 15 16 17 17 18 21 23 24 25 25 26 26 27 27 27 28 29 29 28 28 27 27 30 32 28 26 29 31 37 42 43 43 45 44 40 36 33 32 30 29 30 31 32 30 28 30 29 27 28 30 28 26 26 27 31 35 36 34 32 31 32 31 29 28 26 23 23 23 21 20 19 18 19 21 20 19 19 18 18 17 16 16
18 16 15 15 15 16 15 17 20 22 22 23 25 25 25 26 26 27 27 28 29 28 27 27 28 30 31 29 28 29 31 35 40 41 41 41 42 42 39 34 30 30 29 29 31 32 31 30 30 30 29 30 30 29 27 27 25 24 27 31 32 30 31 35 37 35 34 32 28 25 23 21 21 20 17 19 22 21 18 18 17 16 16 15 14
20 20 19 18 16 14 14 13 14 17 20 21 23 26 27 27 27 27 27 27 27 27 26 27 29 29 30 30 30 30 31 33 36 40 42 40 40 44 42 34 30 31 31 31 32 31 31 31 30 30 31 31 32 31 30 29 28 26 25 25 27 28 29 32 35 37 37 35 31 27 25 24 23 22 19 19 20 18 16 17 16 15 15 16 16
19 21 21 20 19 15 13 12 11 12 16 19 20 22 25 26 27 27 26 26 26 26 26 26 27 28 29 30 31 30 30 31 33 37 42 42 42 45 42 34 32 34 33 34 35 32 31 32 31 29 30 30 31 34 34 30 28 28 28 26 25 27 28 28 30 33 36 37 34 30 29 29 27 23 23 24 22 18 17 19 19 18 18 17 16
19 20 20 20 20 17 13 13 12 11 13 18 21 22 23 22 23 25 26 25 25 26 26 25 25 27 29 31 32 30 30 31 33 36 41 45 46 45 40 32 33 35 33 35 37 34 32 35 35 32 31 31 31 33 35 34 29 28 29 28 26 27 28 27 27 28 30 33 36 34 33 33 31 26 26 27 25 21 21 23 21 19 20 18 17
19 20 20 20 19 17 15 14 14 14 15 18 21 24 27 27 23 21 24 26 26 26 26 25 25 27 29 30 32 33 33 33 34 37 40 45 49 46 36 30 32 33 32 33 35 34 33 35 38 37 34 32 32 32 35 35 32 29 29 29 28 29 27 26 27 27 25 27 31 36 39 39 37 34 30 29 28 25 24 25 22 20 21 20 18
19 19 19 19 17 16 15 14 13 13 14 18 21 22 24 25 25 25 25 24 25 26 25 25 25 25 26 29 32 35 36 34 34 37 39 44 49 45 34 30 32 32 31 32 33 34 34 33 37 40 39 35 34 33 35 36 33 30 29 29 31 30 27 26 28 27 24 24 25 31 37 37 37 38 36 33 33 31 28 27 25 22 22 22 21
19 18 18 17 16 15 14 14 14 13 12 14 16 18 18 19 22 25 27 26 25 25 23 24 25 25 25 28 29 33 36 35 33 35 38 42 48 46 36 30 31 30 30 30 31 32 32 32 35 40 43 42 39 36 36 37 36 31 28 29 32 30 25 25 28 28 26 24 22 25 29 30 30 33 33 33 36 37 34 33 31 27 24 24 22
19 19 18 17 16 15 14 13 14 13 13 13 15 16 15 18 22 24 24 26 27 23 20 20 21 21 23 25 27 28 32 33 33 33 34 37 44 47 41 33 30 30 30 30 32 31 30 30 32 37 43 45 46 43 40 40 39 36 32 29 29 28 25 23 24 25 25 25 24 23 25 27 29 30 29 29 34 39 39 39 39 34 28 26 24
20 19 18 17 16 15 14 14 14 13 12 12 14 15 14 16 22 23 23 24 24 23 23 23 22 21 20 23 28 30 31 31 32 32 32 33 37 42 44 38 34 32 31 31 32 31 29 29 30 33 39 44 47 48 47 44 43 41 38 34 31 29 27 24 22 21 22 23 25 25 26 29 31 31 29 28 29 36 41 42 42 40 33 27 26
21 20 19 19 17 16 16 15 14 13 13 12 12 13 13 13 17 18 18 19 20 22 24 25 25 24 22 22 27 31 31 29 29 31 33 33 33 37 42 43 40 36 33 32 32 30 28 29 28 29 34 40 44 48 50 49 47 44 42 40 36 32 30 28 27 26 23 23 25 27 29 30 32 31 31 28 25 29 37 40 40 40 36 30 28
20 20 20 20 19 18 17 16 16 15 15 14 13 13 12 12 14 15 15 16 18 19 21 22 24 23 22 21 23 25 27 26 26 29 32 33 33 34 37 42 45 43 38 34 32 31 29 28 28 29 31 33 38 43 48 50 49 47 45 42 37 35 35 35 33 31 27 25 26 28 29 30 32 32 29 26 22 23 29 33 32 33 32 29 27
21 19 20 20 20 19 18 17 18 18 17 15 14 13 12 13 14 14 14 16 17 17 18 19 20 19 20 21 22 22 24 24 23 25 28 30 33 34 34 37 43 46 45 40 36 33 30 28 27 28 29 31 33 38 44 48 48 46 45 42 38 38 40 37 32 29 29 29 28 28 27 27 30 30 28 26 24 23 24 26 26 26 28 27 25
21 20 20 20 19 20 20 20 20 19 17 15 14 13 12 13 14 15 15 16 17 18 18 18 19 19 20 22 22 22 23 23 22 23 24 26 29 32 33 35 38 42 47 47 43 40 37 32 30 30 30 30 30 32 36 41 43 43 43 42 40 40 42 39 32 27 28 30 30 28 25 24 27 28 27 25 24 23 23 25 24 24 25 26 25
21 20 20 20 19 20 21 21 21 19 18 17 17 15 14 14 14 15 16 17 17 18 19 19 21 22 22 22 21 21 21 22 22 22 21 22 24 27 30 35 38 41 45 47 46 44 41 36 34 33 31 27 27 28 30 32 36 39 42 43 42 42 43 40 33 29 30 31 29 27 25 25 27 28 26 24 24 24 23 24 25 24 23 24 24
22 21 20 20 21 22 21 21 21 20 20 20 19 18 17 17 17 18 19 20 20 19 19 20 21 22 22 22 20 19 19 20 21 22 22 22 23 24 27 32 37 39 42 44 43 40 38 37 34 31 29 26 24 26 27 26 26 29 32 35 36 38 39 35 30 29 31 31 29 28 27 26 26 27 25 24 24 25 24 24 25 24 23 23 25
24 23 22 22 23 24 22 21 21 21 20 21 22 22 22 22 22 23 25 27 27 25 24 23 23 22 22 22 21 21 19 16 14 17 20 24 26 25 25 28 32 33 35 38 38 32 30 34 34 32 30 27 25 24 24 23 22 23 24 25 27 29 31 30 30 32 34 32 30 30 29 27 26 25 26 26 24 24 24 25 25 24 24 25 25
23 22 22 25 26 25 22 21 22 21 20 21 23 25 27 27 27 27 29 31 33 32 31 31 31 28 25 23 21 21 21 18 16 15 17 20 24 27 27 27 28 29 29 32 33 30 26 27 29 28 26 25 26 26 24 22 23 24 23 22 24 26 27 28 29 32 34 34 32 31 30 30 28 27 28 29 27 24 24 25 26 26 26 26 26
21 21 22 24 26 24 23 23 23 21 21 21 23 25 27 29 31 32 33 32 32 33 33 35 36 36 34 30 25 21 20 18 18 18 18 19 20 23 26 26 27 28 27 28 31 32 29 25 24 24 22 21 24 27 25 24 25 26 25 23 23 24 27 29 28 27 28 30 33 34 32 30 30 30 31 32 30 28 25 24 25 27 28 27 26
19 19 21 24 24 23 23 23 22 21 21 22 23 24 25 25 28 33 36 35 33 32 33 34 35 37 39 39 36 32 27 23 20 18 18 19 19 19 21 23 24 26 26 28 30 29 25 22 22 23 22 19 20 24 25 25 26 27 28 28 26 23 27 32 32 27 24 26 30 33 34 33 32 32 31 31 31 30 29 27 26 27 27 27 27
19 17 20 22 22 21 21 22 21 21 22 23 23 24 25 26 27 31 33 32 29 27 28 31 34 37 40 41 42 42 39 34 31 27 23 21 19 18 18 20 23 25 27 30 29 24 19 19 20 21 21 21 21 24 26 28 28 28 28 29 28 26 26 29 29 27 25 26 27 27 30 32 33 32 31 30 31 31 30 29 28 27 27 27 27
20 19 20 22 21 20 21 22 21 21 23 25 24 24 26 28 30 32 31 29 26 23 23 24 27 32 38 42 43 44 42 38 35 34 31 26 21 17 17 19 21 24 27 29 28 23 20 19 19 19 21 23 23 25 27 28 28 29 28 27 29 30 27 23 23 24 24 25 25 26 27 28 29 31 33 32 31 30 30 31 31 31 29 28 28
19 20 21 23 24 23 23 24 24 24 25 26 26 26 28 29 32 35 30 26 26 23 21 20 18 20 28 37 42 43 40 37 33 31 31 29 25 21 19 20 20 21 25 28 29 28 26 24 22 21 22 23 24 25 27 28 29 32 33 31 31 32 30 25 24 25 25 24 25 27 27 27 28 31 32 31 30 31 31 31 32 32 31 31 30
19 20 22 24 26 25 24 25 27 27 27 28 28 28 29 31 33 36 31 19 21 23 22 19 12 6 8 19 29 34 35 33 30 27 25 25 26 25 23 20 17 17 20 22 23 25 26 26 25 23 23 24 25 26 28 29 29 31 33 34 33 32 33 31 30 30 28 27 28 29 29 31 33 35 33 31 31 33 33 33 34 34 35 36 34
20 21 23 25 26 25 23 25 28 28 27 29 29 29 30 31 31 34 35 26 12 9 8 2 6 11 9 5 5 13 19 20 20 19 17 18 20 23 23 20 18 18 19 19 18 20 23 24 24 23 23 23 25 26 27 28 29 30 32 34 34 32 33 34 34 32 31 32 35 34 33 35 37 38 36 34 34 35 36 38 39 37 36 37 35
21 21 24 26 25 24 23 25 27 27 26 28 29 28 28 29 28 30 33 32 25 16 12 16 20 19 16 15 12 4 3 6 7 10 12 14 17 20 21 20 19 19 19 18 17 18 21 22 23 24 24 23 25 27 29 30 30 29 28 28 29 29 30 32 32 32 33 35 38 38 37 36 37 38 37 36 36 37 37 38 39 37 35 36 37
21 22 24 25 24 23 23 23 24 25 24 25 27 27 26 26 27 28 27 27 28 25 19 16 20 23 26 25 19 13 9 8 6 4 1 3 8 13 15 16 17 17 17 16 16 16 17 18 19 21 23 24 27 30 33 32 29 26 25 26 28 28 28 29 30 31 34 37 38 38 38 36 35 34 35 36 38 38 39 40 40 38 37 37 36
21 22 23 23 23 22 21 22 24 24 22 22 24 26 26 26 26 26 25 24 24 25 22 18 19 24 30 32 26 20 18 17 15 15 14 12 9 5 3 7 10 13 14 15 16 16 16 17 18 19 22 24 26 27 29 31 31 29 28 30 32 30 28 28 29 30 32 35 35 34 35 36 35 33 35 38 39 38 38 38 37 35 34 35 34
20 21 22 22 22 20 20 22 24 23 21 21 23 24 25 24 24 24 24 24 25 25 24 22 22 25 30 33 30 25 22 21 20 19 19 18 17 16 14 12 10 9 10 11 13 15 15 16 18 19 21 24 25 25 26 27 28 28 27 30 32 31 30 30 30 30 31 32 33 32 34 36 36 36 38 39 38 36 36 36 34 33 34 35 35
19 19 20 20 20 19 19 20 22 21 21 22 23 22 22 22 23 23 23 24 26 26 25 25 25 25 28 31 30 26 24 22 21 21 21 20 19 19 18 17 16 15 14 12 11 12 13 14 15 16 17 19 21 24 25 25 25 25 25 27 29 31 31 31 32 31 30 30 31 33 35 37 36 36 35 34 32 31 34 35 33 32 33 34 34
18 18 18 19 19 19 18 18 19 19 21 21 21 22 22 22 23 25 25 24 25 25 25 26 27 26 26 28 28 26 24 23 23 22 22 22 21 20 19 19 19 18 18 17 15 14 13 12 13 14 15 15 15 17 18 19 20 23 24 24 25 28 31 32 33 34 34 32 32 33 35 37 37 36 34 33 31 30 32 33 33 32 33 32 31
17 17 17 17 18 19 19 18 18 19 20 21 21 22 23 23 23 24 25 25 26 25 24 25 27 27 26 26 27 26 24 24 24 24 23 22 21 20 20 19 19 19 19 19 19 18 17 15 14 13 13 13 13 13 14 15 15 17 19 19 20 23 27 31 34 35 36 36 35 34 33 34 36 35 34 35 35 33 33 34 34 32 31 31 30
16 16 16 16 17 19 19 19 18 19 19 20 21 21 21 22 22 22 23 25 28 28 25 24 25 26 26 25 26 26 25 24 25 25 24 23 22 21 21 21 20 20 19 19 19 20 20 20 19 17 16 14 13 12 13 13 14 15 14 15 16 17 19 22 26 31 34 36 36 35 34 34 34 34 33 34 34 33 33 33 32 31 31 32 32
15 15 16 16 17 18 19 19 19 19 19 19 20 20 21 21 22 22 22 24 27 29 27 25 24 25 24 24 24 25 24 24 25 27 27 26 25 24 23 23 22 21 21 21 21 20 20 21 21 21 20 18 16 14 13 12 12 13 13 13 13 12 13 15 18 22 28 33 36 37 36 35 34 34 33 33 33 32 32 31 31 32 32 32 32
15 15 15 16 16 17 18 18 19 19 20 20 19 19 20 21 21 21 21 22 24 25 25 25 24 25 24 23 23 23 23 23 24 26 27 27 27 26 25 24 23 22 23 23 24 23 22 21 21 22 23 23 21 19 18 16 14 13 13 14 13 12 13 15 16 17 19 23 29 34 36 36 35 34 33 33 33 33 32 32 31 32 33 32 32
14 14 14 15 15 16 16 17 17 17 18 19 19 19 19 20 20 20 20 21 21 21 21 22 23 24 24 24 24 24 25 24 25 26 27 27 26 26 26 26 26 26 25 24 24 25 25 24 24 23 24 26 27 26 23 22 20 18 17 18 18 16 14 15 17 19 18 18 21 26 30 33 35 34 34 34 34 34 34 33 32 32 32 31 32
12 13 13 14 14 14 15 16 16 16 17 17 18 18 19 19 20 20 20 20 20 19 19 20 20 21 22 23 24 25 26 26 25 26 27 27 27 27 27 28 29 29 28 26 26 26 26 26 27 27 25 27 30 32 30 28 26 23 22 22 22 19 15 14 16 18 19 19 19 20 23 27 30 32 32 32 33 32 33 33 33 32 32 31 31
11 11 12 13 13 14 14 15 15 16 16 16 16 17 17 18 18 18 18 18 19 19 19 19 20 20 21 22 22 23 24 24 25 25 27 28 28 27 28 28 29 30 30 29 29 29 29 28 29 30 29 29 32 36 36 33 30 27 24 24 25 23 17 14 13 15 16 18 18 19 19 21 25 27 28 29 30 30 31 32 32 31 31 31 31
Wind_Direction
236 230 226 223 224 225 226 226 225 225 227 224 215 208 209 210 205 200 200 203 204 202 204 207 208 207 202 202 214 227 230 227 224 227 228 221 217 217 215 215 216 216 215 213 213 215 216 219 221 222 221 221 222 223 223 224 224 228 232 232 235 233 228 230 238 253 266 250 229 213 195 188 193 201 196 192 209 217 207 202 211 215 215 216 217
239 236 233 229 226 225 225 224 224 225 226 225 220 212 207 207 202 198 203 209 208 205 206 208 209 210 206 204 209 216 220 220 218 222 229 227 219 216 216 216 217 215 214 212 211 211 214 218 221 220 219 221 224 225 222 221 221 224 228 227 231 231 226 227 229 231 237 231 224 217 204 203 210 210 201 195 203 213 207 200 207 212 209 209 213
242 238 235 234 232 230 228 226 224 224 225 225 223 216 209 205 203 202 209 212 212 212 211 209 209 209 209 210 213 216 217 216 212 213 220 224 221 217 216 216 215 213 212 210 210 210 211 215 217 216 216 219 225 226 223 221 222 224 227 225 228 230 228 229 227 225 229 224 219 217 215 216 219 214 207 202 201 204 203 201 204 209 209 208 209
246 236 232 232 234 234 232 231 229 226 224 223 219 212 208 206 206 209 214 212 210 211 211 208 207 206 205 206 211 215 218 217 215 214 217 222 225 222 218 215 212 211 210 209 210 209 208 209 210 210 212 216 222 223 221 219 220 226 228 226 226 228 227 228 225 225 236 238 231 225 222 220 221 219 211 202 199 199 199 201 204 207 209 209 208
254 238 231 228 230 234 233 232 232 228 224 221 215 208 206 206 207 210 214 212 206 206 208 208 208 207 203 202 206 207 209 216 221 221 217 218 224 225 221 215 211 209 207 206 208 209 207 208 209 207 207 211 216 219 218 214 216 223 226 224 225 225 223 224 223 223 229 239 242 233 226 225 221 218 212 202 198 200 200 200 203 205 207 208 210
267 248 234 227 226 230 232 231 231 229 224 221 216 208 203 204 208 210 214 214 207 205 209 210 212 212 206 202 204 204 202 211 222 225 220 217 224 228 223 215 210 207 204 203 206 207 207 209 209 207 207 208 210 214 216 213 214 218 221 221 221 221 221 220 221 222 223 230 234 223 220 229 222 211 212 210 204 203 200 198 201 204 204 205 206
273 256 239 231 226 226 228 229 229 229 226 225 223 217 208 206 209 211 213 213 209 209 212 214 217 217 211 203 202 206 206 207 216 225 223 220 226 229 224 213 208 207 206 204 205 206 207 209 209 207 208 209 209 210 213 212 213 216 216 217 217 218 220 219 219 220 219 226 229 220 219 226 223 219 218 215 214 213 204 197 198 200 202 204 203
274 262 246 237 229 225 225 226 228 228 226 225 226 223 216 210 209 211 212 210 209 212 215 215 216 217 213 204 197 204 209 208 211 219 221 220 225 230 226 215 207 205 205 206 206 206 206 207 209 209 209 211 210 210 211 210 211 215 216 216 215 216 218 217 217 220 220 223 225 226 228 223 217 222 221 212 215 218 211 205 204 199 199 203 204
274 265 253 241 234 228 225 224 227 227 225 225 223 220 218 213 208 207 210 210 212 215 216 215 213 213 212 202 190 195 208 212 212 214 218 221 224 228 226 217 206 201 202 204 205 206 206 206 209 210 211 212 213 213 213 210 208 212 215 215 214 215 218 217 215 217 220 221 221 225 229 221 213 219 218 212 215 220 215 210 213 209 200 201 206
277 265 257 247 240 233 225 224 226 225 226 227 225 220 217 214 208 208 211 214 216 218 218 214 212 214 212 200 185 185 200 213 215 213 216 219 221 224 225 216 205 200 200 202 204 206 207 207 209 211 212 215 217 216 214 213 211 210 209 210 211 212 215 217 216 217 219 222 221 222 224 221 215 219 224 222 219 222 218 210 214 218 207 199 204
283 265 258 253 246 237 227 223 225 225 225 225 224 222 219 214 212 212 212 213 215 217 216 212 210 216 217 201 185 182 193 205 209 209 213 216 217 223 225 218 209 204 200 201 203 205 207 209 210 211 212 215 219 219 217 215 214 213 209 208 208 210 214 215 215 217 221 224 223 221 222 223 216 217 227 231 223 221 220 211 212 220 214 204 205
292 272 260 256 250 239 229 223 223 226 227 225 222 220 217 212 211 212 212 212 213 214 215 213 210 216 221 208 188 184 193 201 204 206 208 209 211 216 219 217 213 208 203 203 203 202 206 209 212 213 213 215 217 220 222 220 218 216 214 212 212 213 216 215 214 216 221 225 225 221 220 223 220 217 223 229 226 220 218 214 215 220 217 214 216
298 282 266 257 252 243 231 225 223 224 224 224 221 218 217 214 211 212 213 213 213 214 215 215 212 215 222 214 193 188 197 203 203 203 203 205 208 210 211 212 212 207 203 204 203 202 203 206 211 215 216 217 215 216 221 224 223 222 221 220 220 219 220 219 218 219 221 224 227 226 222 221 224 224 222 223 224 219 214 214 216 218 217 220 226
314 299 283 272 262 249 235 228 227 226 224 222 218 215 216 216 215 214 213 211 211 214 214 213 213 217 222 220 205 197 203 208 207 205 204 204 208 211 211 212 214 211 208 206 203 203 202 201 206 211 212 215 215 213 214 218 222 224 225 227 226 225 225 225 225 226 228 230 232 233 230 227 229 232 225 214 213 216 216 215 215 215 216 224 231
341 334 324 310 287 264 245 233 231 230 226 221 217 215 215 214 212 211 212 210 209 210 211 211 215 218 221 223 218 208 208 213 213 212 210 209 210 212 212 213 217 217 215 211 207 205 203 201 203 206 208 211 212 210 208 209 212 214 220 226 227 226 226 226 227 228 230 232 233 234 236 233 231 233 225 208 210 219 225 221 216 214 216 222 226
349 345 342 337 322 294 272 261 252 245 238 230 220 215 214 214 212 210 209 208 208 208 209 210 214 217 218 220 221 216 214 217 218 218 217 215 212 212 212 213 218 220 219 216 212 208 205 204 204 206 209 211 212 210 204 203 207 210 215 221 224 224 225 226 227 228 227 228 228 229 233 234 233 231 221 210 213 220 225 224 218 213 213 215 215
347 342 339 340 339 326 304 293 286 268 260 256 246 232 223 217 214 212 210 207 204 205 207 209 211 214 218 220 220 220 220 221 223 223 222 220 214 210 209 212 218 221 221 220 218 214 209 207 207 207 209 209 211 212 208 201 202 210 215 218 221 225 226 225 228 230 229 229 227 225 227 231 233 230 222 219 221 218 218 222 217 208 210 212 212
345 340 336 334 335 333 322 304 289 274 266 264 262 259 253 240 223 214 210 209 206 204 205 208 211 213 218 221 221 222 224 224 225 226 225 222 216 210 208 210 215 219 220 221 221 219 215 213 210 208 210 211 211 213 212 207 204 207 212 214 218 225 227 222 223 229 232 233 232 228 226 229 231 227 222 224 227 223 218 222 218 210 212 215 214
340 335 332 330 330 333 333 318 296 280 270 264 262 261 261 263 259 243 224 213 209 207 204 205 211 214 216 220 221 222 225 225 226 228 227 223 218 213 209 209 213 215 216 219 222 221 219 217 213 210 210 213 213 213 213 211 208 208 209 210 215 223 226 219 216 220 224 228 230 228 228 230 231 229 226 226 228 226 221 221 219 216 217 217 214
334 331 329 329 329 330 332 326 311 293 276 268 265 260 256 259 265 267 257 234 216 212 208 205 210 212 213 216 219 221 224 225 227 230 229 224 219 215 210 210 213 213 212 214 218 221 221 218 216 213 211 211 213 214 214 214 212 209 207 209 215 220 223 220 216 214 216 220 223 223 225 228 231 232 230 228 229 228 223 219 218 218 220 220 216
331 332 330 328 328 329 328 326 322 313 299 287 277 267 259 252 249 256 264 258 239 225 213 208 209 210 212 217 220 221 223 225 228 230 228 223 220 215 210 211 214 214 212 213 216 220 221 219 216 215 213 212 213 214 214 215 216 213 208 212 217 218 219 223 221 215 215 220 222 219 219 222 227 229 227 226 228 228 223 219 217 216 219 221 219
333 335 333 331 331 331 329 328 326 320 315 312 301 286 275 263 250 242 244 250 252 247 236 227 222 216 213 218 224 226 225 225 227 230 228 222 219 216 212 212 214 213 215 218 219 221 224 223 220 217 214 213 212 213 215 216 216 216 216 217 217 213 214 223 224 215 213 220 223 220 217 219 223 224 220 219 223 226 224 220 217 216 217 220 222
337 338 339 338 335 334 332 329 328 323 316 313 306 296 282 262 250 240 230 231 238 241 239 238 237 231 222 219 223 227 229 227 227 229 229 225 221 219 217 215 214 213 215 220 222 224 227 229 228 225 221 217 213 212 215 217 217 219 222 223 218 211 212 221 222 214 213 221 225 223 221 222 224 224 220 215 216 222 224 221 218 216 215 217 222
340 342 345 345 341 340 338 333 330 326 321 315 302 291 284 266 252 247 237 230 228 227 225 225 228 229 225 220 221 223 226 227 227 228 230 228 225 223 222 221 219 216 217 222 225 226 228 231 233 234 231 226 220 216 216 217 219 223 226 225 220 213 213 218 220 218 219 225 229 228 226 225 225 226 225 219 213 218 223 222 219 217 215 216 219
341 342 347 349 347 346 343 339 337 332 323 316 306 294 289 279 263 253 244 238 235 233 228 222 221 223 222 222 222 221 222 226 227 229 233 232 229 227 225 224 223 220 219 224 228 230 233 234 236 239 241 237 230 224 219 218 221 224 227 226 220 213 215 219 219 218 218 221 228 230 228 228 228 230 231 227 215 211 216 217 215 214 214 214 216
342 342 346 349 350 350 347 342 338 333 325 318 309 299 291 283 272 260 248 240 237 238 236 231 227 224 223 225 226 223 223 223 224 227 231 230 230 229 227 226 227 225 224 226 229 231 235 238 238 240 242 242 238 232 226 223 223 224 226 225 219 214 216 218 217 215 216 219 226 229 227 227 231 232 232 227 216 208 206 206 206 206 207 208 209
342 344 347 349 350 350 347 342 338 333 329 324 316 306 296 285 277 268 256 246 239 237 236 236 234 231 227 227 227 226 225 224 222 221 220 220 224 227 227 227 228 228 228 228 230 232 235 238 240 242 243 244 242 237 232 228 227 227 227 226 221 217 218 219 217 215 215 218 223 227 226 226 229 230 226 219 213 210 207 204 204 205 204 203 205
343 345 349 351 351 349 345 341 338 334 330 325 318 312 307 298 288 277 267 258 251 243 236 233 233 232 230 228 226 226 226 225 223 218 212 209 213 218 223 226 226 226 228 229 230 234 236 238 241 244 245 242 237 231 227 225 226 228 229 228 226 224 222 222 221 220 218 217 220 224 225 223 222 223 220 214 212 214 209 205 208 209 204 200 204
345 347 350 352 351 348 344 342 339 333 329 326 320 314 310 304 295 287 278 269 263 259 253 245 238 235 235 233 228 227 228 227 225 221 215 210 208 210 217 223 224 224 227 227 226 227 231 233 236 241 240 234 226 223 220 218 218 223 226 227 226 225 223 220 218 219 219 219 220 224 225 223 218 218 217 214 213 213 209 205 208 211 207 205 209
343 345 348 350 349 346 343 342 340 334 329 326 323 317 312 305 295 287 280 273 267 262 258 254 248 244 244 241 233 230 234 236 232 225 220 219 221 223 227 233 232 229 229 228 223 220 221 223 225 230 231 227 222 220 217 214 214 217 220 221 219 221 221 218 216 219 219 216 217 221 223 223 220 219 218 217 214 211 209 207 208 210 209 211 214
341 341 344 345 345 344 342 340 338 335 329 326 325 322 317 311 303 292 283 278 273 267 259 252 247 245 247 250 246 239 238 244 250 245 234 228 230 233 239 245 246 241 235 229 224 222 222 220 219 222 224 223 223 223 220 216 216 217 219 218 215 216 218 217 217 220 220 215 215 218 220 220 220 219 218 218 216 213 210 207 206 209 212 215 217
339 338 340 342 342 341 341 340 336 332 327 325 326 325 321 315 309 302 294 286 279 273 265 256 248 241 240 243 246 245 242 244 250 253 249 244 241 241 244 248 250 248 242 231 224 224 225 223 221 220 220 221 224 225 222 220 220 219 221 222 219 217 220 221 220 220 217 214 214 215 217 217 218 218 219 219 218 216 214 209 205 208 213 216 219
339 338 340 341 340 339 340 338 334 330 327 324 324 325 323 317 310 305 300 293 284 275 267 260 252 243 237 235 237 240 242 244 246 250 251 249 248 248 248 248 250 249 241 230 225 226 227 227 227 225 222 222 224 224 224 224 224 224 226 228 225 222 225 229 228 223 217 215 216 216 217 217 217 218 220 220 219 218 217 214 210 209 211 214 217
340 338 340 342 340 336 337 336 332 330 330 326 322 321 321 317 310 303 296 290 283 275 264 256 250 243 237 234 234 236 240 243 245 247 250 250 248 247 247 246 244 242 236 229 227 228 227 228 232 231 228 226 226 226 227 226 225 224 227 229 230 229 229 227 224 219 216 218 219 218 218 218 218 219 219 219 219 220 218 217 215 213 213 215 216
342 340 341 344 342 337 337 338 336 334 332 327 322 320 320 318 314 306 290 273 265 266 259 250 245 240 236 234 234 235 237 240 241 243 244 245 246 243 238 234 232 231 230 229 229 229 228 229 232 234 232 231 229 227 227 226 225 225 226 229 232 234 231 222 216 215 215 217 218 219 218 217 218 220 221 220 218 218 218 217 218 218 217 217 217
343 343 344 346 344 340 340 342 342 338 334 330 327 325 325 324 322 317 299 263 244 252 257 248 243 240 236 234 233 234 236 237 239 241 241 242 244 240 229 223 223 224 225 227 229 229 230 231 232 231 231 230 229 227 226 225 225 226 228 230 233 233 231 227 224 221 219 218 221 223 221 220 220 221 223 222 220 220 222 222 223 224 223 219 217
343 345 346 344 342 340 341 343 342 340 339 339 338 336 336 334 334 333 324 286 239 237 246 247 244 236 231 236 236 236 237 240 241 242 242 242 242 239 232 226 224 222 222 225 226 225 227 231 232 230 228 227 227 227 227 226 226 227 229 230 231 231 232 232 231 229 226 225 228 228 227 227 226 224 223 222 221 223 224 224 226 227 227 226 224
345 345 344 342 342 342 341 342 343 344 346 347 347 345 343 340 340 343 343 336 306 247 231 242 45 49 40 4 272 236 235 237 235 232 233 234 235 234 233 232 232 230 229 229 226 223 226 232 232 231 231 230 228 228 229 229 229 229 229 228 228 230 232 232 231 231 231 231 232 232 231 230 229 226 223 221 221 222 223 223 224 223 224 228 230
345 344 344 344 345 345 344 345 346 348 350 351 350 350 347 344 347 350 349 348 353 9 44 62 57 46 30 23 30 54 180 197 198 205 213 220 225 228 229 231 233 235 237 238 233 228 229 232 232 230 232 233 233 233 234 234 233 233 233 232 230 231 231 230 229 230 231 232 233 233 232 230 229 228 224 222 222 223 224 226 226 222 221 225 228
346 345 345 346 347 347 346 347 349 351 351 351 352 352 350 351 354 354 349 349 355 3 17 44 52 42 33 33 39 47 51 49 42 34 43 209 221 224 225 227 231 234 237 239 238 236 235 237 237 234 233 234 235 235 236 237 238 237 236 236 235 233 230 228 228 228 229 231 233 232 231 230 229 228 225 223 224 224 225 227 228 225 224 226 227
345 346 347 347 348 349 348 349 353 353 351 351 355 358 358 358 359 357 353 355 359 359 4 21 38 37 35 39 48 53 50 43 34 28 27 25 18 2 302 265 255 249 248 248 246 243 241 240 240 237 235 238 240 238 236 237 238 235 232 233 234 234 230 228 228 228 229 231 232 231 231 232 230 226 225 225 226 226 227 229 230 228 227 229 230
345 347 349 349 349 350 349 349 351 353 353 354 358 1 2 2 3 1 359 1 6 5 3 9 21 28 31 36 44 49 48 43 38 34 31 27 23 20 13 2 346 323 303 288 274 266 260 254 249 243 239 240 242 239 235 235 236 233 230 231 232 231 228 227 228 230 230 232 232 231 233 233 231 228 228 228 227 225 226 229 230 228 227 228 228
348 349 351 352 351 351 350 348 348 350 353 356 357 360 2 4 8 9 7 7 11 13 10 8 13 20 25 30 36 41 43 40 35 33 31 28 24 21 17 14 10 3 353 344 329 312 300 290 281 272 263 258 253 246 241 239 237 235 236 234 232 231 230 229 230 231 231 232 233 234 234 234 232 230 230 231 229 226 226 229 230 228 228 229 228
352 350 350 354 354 352 351 352 351 350 352 355 358 2 5 8 11 13 13 12 12 14 13 13 15 18 22 25 29 33 35 34 30 29 27 24 20 18 16 14 15 14 12 9 5 355 343 332 320 306 294 289 282 270 263 257 249 245 246 244 240 236 234 233 234 236 236 235 235 235 235 236 235 232 230 231 232 228 225 227 229 228 227 227 226
353 351 348 351 354 353 352 352 353 354 357 360 2 4 6 10 12 13 14 15 15 14 14 14 16 20 22 23 26 29 31 31 30 28 25 22 18 14 12 11 13 16 16 15 15 15 14 10 1 349 333 321 312 304 299 294 282 268 260 255 251 247 243 240 240 240 239 238 237 235 234 235 235 233 230 230 231 230 227 226 227 226 225 224 224
353 352 348 351 353 353 353 352 352 356 0 3 5 5 5 6 9 11 13 15 16 16 15 14 16 19 21 21 23 25 27 29 30 28 26 23 20 16 13 13 14 16 16 14 15 18 21 22 21 16 10 1 350 339 329 321 315 307 293 276 266 262 257 252 248 244 241 239 239 238 237 236 236 235 233 231 231 232 231 229 227 225 224 224 223
351 350 350 354 354 353 354 354 354 358 0 1 4 5 5 5 7 9 12 14 16 17 17 17 17 19 19 19 20 22 23 25 26 26 26 25 23 19 16 16 17 18 18 18 18 19 21 22 21 20 19 18 14 9 2 353 343 335 325 309 291 278 269 264 257 250 246 243 241 239 239 238 238 237 235 232 230 231 231 230 228 226 225 225 224
350 348 351 356 355 355 356 356 356 359 1 0 1 3 4 5 7 9 10 12 14 15 15 17 18 19 18 18 18 19 20 21 22 22 22 23 23 22 20 19 19 19 20 21 21 22 22 22 22 20 19 20 23 22 19 15 8 357 345 333 318 294 272 262 258 255 253 250 246 243 241 240 239 239 236 233 231 230 228 229 228 227 226 226 225
348 348 351 354 355 357 358 358 357 359 0 360 0 1 3 5 7 8 9 11 12 11 11 12 15 17 17 17 17 18 19 19 18 17 17 19 21 22 22 22 21 22 22 21 21 21 22 24 25 24 20 20 22 24 25 23 20 15 6 354 338 316 289 270 259 254 254 253 251 249 245 241 240 240 238 235 233 231 229 228 228 227 226 225 224
348 350 351 353 354 356 357 358 359 360 0 1 1 1 2 5 6 6 6 7 9 8 7 8 11 13 13 14 15 17 18 17 15 13 13 14 16 18 20 20 21 22 22 21 21 21 21 22 24 23 22 20 20 21 23 23 22 21 17 8 357 341 315 289 271 259 253 251 249 250 249 246 242 241 239 237 235 233 231 230 229 227 225 225 224
346 351 353 353 355 355 355 357 358 358 359 2 2 0 1 3 4 5 5 5 6 6 5 5 8 10 11 12 13 14 14 15 14 13 14 13 12 12 14 15 17 19 21 21 21 21 21 21 21 21 21 21 19 19 19 20 20 21 19 13 7 2 348 322 292 271 260 255 250 248 249 249 246 244 241 239 237 234 233 232 231 228 226 225 225
Height
740 739 739 740 741 742 743 745 747 749 750 753 756 759 762 766 768 769 770 771 772 773 774 777 778 777 779 784 788 793 796 799 801 805 805 803 804 803 804 805 806 808 810 812 814 816 819 821 823 825 827 828 830 831 833 834 835 836 837 838 839 840 841 842 844 844 845 845 846 847 847 848 849 849 851 852 852 853 856 858 858 858 859 860 860
737 737 736 737 737 738 740 742 743 745 747 748 751 753 757 760 762 764 767 768 769 769 770 773 775 775 775 778 780 784 788 790 794 800 803 803 802 800 801 802 803 804 806 808 811 813 815 817 819 822 824 825 827 828 829 831 832 833 834 835 836 837 838 840 842 843 844 845 846 846 846 847 847 847 848 850 850 850 852 855 856 856 857 858 858
736 735 734 734 734 735 736 738 739 741 743 744 746 748 752 754 756 759 762 763 764 765 766 769 771 772 773 774 777 782 786 787 788 791 796 799 799 797 797 798 799 801 803 805 807 809 812 814 816 818 820 822 824 825 826 828 829 830 831 832 833 834 836 837 839 840 842 844 844 844 844 845 845 845 846 847 848 849 850 852 853 854 855 856 857
734 733 732 732 732 732 733 735 736 737 739 742 743 745 747 750 752 755 757 759 760 761 762 764 766 768 770 771 774 780 784 786 785 784 788 793 796 795 794 794 795 796 799 801 804 806 808 810 812 814 817 819 821 822 823 825 826 827 828 829 830 832 833 835 836 838 839 841 841 841 842 843 843 844 844 845 847 847 848 849 850 851 853 854 855
732 731 731 730 730 731 731 732 733 734 736 739 741 742 745 747 748 751 752 754 755 756 758 761 761 763 765 766 771 775 779 782 784 783 784 788 793 794 793 792 791 793 795 797 800 802 804 806 808 811 813 815 817 819 820 822 823 825 826 827 828 829 831 832 833 835 836 837 839 840 840 841 841 842 843 844 845 845 846 847 848 849 850 852 853
730 729 729 728 728 729 729 730 730 731 733 735 736 738 741 742 744 746 748 749 750 752 754 756 757 760 760 761 765 772 776 779 781 782 783 784 788 792 792 789 788 789 791 793 796 798 800 802 805 806 808 810 812 815 817 818 820 822 823 824 825 826 828 829 830 831 833 834 836 837 838 839 840 840 841 842 843 843 844 845 846 847 848 849 851
728 727 726 726 726 726 726 727 728 728 730 731 732 734 736 736 738 741 743 744 746 748 751 752 754 757 758 755 758 766 771 774 777 780 781 782 786 790 790 786 784 785 787 789 791 793 795 798 800 802 804 806 808 811 813 814 816 818 820 821 822 824 825 827 828 829 830 831 832 834 836 837 838 839 839 840 841 841 841 842 843 844 845 846 848
726 725 724 723 722 722 723 724 725 726 728 729 729 731 732 732 732 736 739 741 743 745 748 749 751 754 755 751 751 758 764 769 772 775 778 780 784 788 787 783 780 781 783 784 787 789 790 793 795 797 800 802 804 806 808 810 812 814 816 817 819 820 822 823 825 826 827 828 829 830 832 833 835 836 837 838 838 838 838 839 840 841 842 843 844
724 723 721 720 719 719 720 721 722 723 725 726 727 728 729 729 729 731 734 736 740 743 745 748 748 750 751 747 746 751 757 763 767 769 772 776 779 783 783 779 776 776 778 780 782 784 786 788 791 793 795 798 800 802 804 805 807 809 811 813 815 816 818 820 821 823 824 824 825 826 827 829 831 832 833 834 834 834 835 836 837 837 839 840 841
722 720 718 717 716 716 717 718 719 720 721 723 723 723 724 726 726 726 728 731 736 740 743 745 745 746 747 742 740 745 751 756 761 762 765 769 774 778 778 775 772 772 773 775 777 780 782 784 786 789 791 793 795 798 800 802 803 805 806 808 810 812 814 816 817 819 820 820 821 823 824 825 827 828 830 831 831 831 832 833 834 834 836 837 838
720 718 716 714 714 714 714 715 716 717 718 718 719 720 721 722 723 723 725 728 732 736 739 741 740 742 744 738 733 738 745 750 755 757 759 764 771 775 775 773 771 769 770 771 773 776 778 780 782 784 787 789 791 794 797 799 801 802 803 805 806 807 809 811 813 815 816 816 817 819 819 820 822 824 826 828 828 828 829 830 830 831 832 833 834
718 715 713 711 711 710 710 711 712 713 714 715 716 717 718 720 720 721 723 726 729 732 734 735 735 738 741 736 729 732 739 744 748 751 755 759 765 769 770 770 769 767 767 768 770 772 775 777 779 781 783 785 788 790 793 796 798 800 801 802 803 804 805 807 809 811 812 813 813 814 815 816 818 820 822 823 824 825 826 827 827 828 829 830 830
716 713 711 709 708 707 707 709 709 710 711 711 713 714 715 716 717 719 721 723 726 728 729 730 731 733 736 734 728 728 734 739 742 746 749 753 757 761 763 764 764 763 762 763 765 767 770 773 776 778 780 782 785 788 790 792 795 797 799 800 801 801 803 804 806 807 808 809 809 810 812 813 814 815 817 819 821 822 823 823 824 825 826 827 827
715 713 710 707 706 705 705 706 706 707 708 709 710 711 712 713 714 716 718 720 721 723 724 725 727 729 732 732 728 727 729 733 737 740 743 746 750 754 757 759 759 759 759 760 760 762 764 767 770 773 776 779 781 784 787 789 791 793 795 797 797 798 799 800 802 804 805 806 806 806 808 809 810 811 813 815 817 819 819 820 820 822 823 825 826
716 714 712 709 707 705 704 703 704 704 705 706 707 708 709 710 711 712 714 715 716 718 719 721 723 725 727 729 728 726 725 728 731 735 737 739 742 746 750 754 756 756 757 757 757 758 760 761 764 767 770 772 775 777 780 783 786 788 790 791 793 794 794 795 796 798 800 802 803 803 804 805 807 808 810 811 813 816 817 817 818 819 821 823 824
718 716 714 711 709 707 705 703 703 703 704 704 704 705 705 706 707 708 709 710 712 713 715 717 719 721 723 724 725 723 722 723 726 729 732 734 736 739 745 750 752 752 753 754 754 755 756 758 760 762 764 766 769 771 773 776 780 782 784 786 788 789 789 789 790 792 795 797 798 800 801 802 803 805 806 807 809 812 815 815 816 817 818 819 819
720 718 716 713 711 709 706 705 704 703 704 704 704 703 702 701 702 704 705 705 707 708 710 712 714 716 718 719 720 720 720 720 721 725 728 730 732 735 740 745 747 748 749 750 751 752 753 754 755 757 759 761 763 765 768 771 774 776 779 781 784 785 785 785 786 788 790 792 794 796 798 798 799 801 802 803 805 808 811 812 813 813 813 813 813
722 720 718 715 713 710 707 705 704 704 704 705 705 704 703 702 701 701 701 702 702 704 706 708 710 712 713 714 716 717 717 716 717 720 723 726 729 732 735 739 742 743 744 746 747 748 748 748 750 752 754 756 758 760 763 766 768 770 773 776 778 779 780 781 783 783 786 788 790 793 794 794 795 797 798 799 801 803 806 807 809 810 809 808 808
724 722 719 717 714 711 708 706 704 703 702 703 704 704 704 704 703 701 700 699 699 700 701 704 706 708 710 711 713 714 714 714 714 716 718 722 727 729 732 735 736 737 738 741 743 745 744 744 744 746 748 751 754 756 758 760 763 764 766 769 771 772 774 777 778 779 781 784 785 787 789 790 791 793 794 795 796 798 800 803 805 806 805 805 805
725 722 720 717 714 712 710 708 706 704 702 702 702 702 701 702 702 702 701 699 698 697 697 699 702 704 706 708 709 711 712 712 712 712 714 718 722 726 729 730 731 732 733 735 737 739 740 739 739 740 743 746 749 751 752 755 757 758 760 762 763 764 769 772 774 775 777 779 781 782 784 786 788 789 789 790 791 792 795 797 800 801 801 802 802
724 722 720 717 715 713 711 710 708 705 703 701 701 700 699 699 699 699 700 701 700 698 695 696 698 700 702 704 706 707 709 710 710 710 711 714 717 721 724 725 726 728 729 730 731 732 734 734 733 733 735 739 742 745 746 748 751 753 754 754 755 760 765 768 769 771 773 776 778 779 780 783 785 785 785 785 785 786 788 790 792 795 796 797 797
723 721 719 717 715 713 711 709 708 705 703 701 699 698 697 698 697 697 698 701 702 700 697 696 696 697 699 701 702 704 706 707 708 707 707 710 713 716 718 720 721 724 725 726 726 727 729 730 730 728 728 730 734 737 739 741 744 747 748 750 752 757 762 765 767 769 770 772 774 775 776 778 780 780 780 779 778 779 781 783 785 787 790 792 793
723 720 718 716 714 712 710 708 707 705 704 702 700 698 697 697 698 697 697 698 699 700 699 697 698 698 697 698 700 702 703 704 705 704 704 706 708 711 713 715 717 719 721 721 722 723 725 726 728 727 726 725 726 729 732 735 737 740 743 745 749 754 759 762 764 765 767 768 769 769 770 772 773 774 774 774 773 773 775 776 778 781 783 786 788
724 720 717 715 713 711 709 707 705 704 703 702 701 699 697 696 696 695 694 694 694 696 696 696 697 697 696 695 697 699 699 699 700 700 701 702 704 706 708 711 713 715 717 718 719 720 722 722 724 725 725 724 724 724 725 728 731 734 737 740 745 750 755 758 759 760 762 763 764 764 764 765 767 768 769 770 771 770 771 773 774 776 778 780 783
724 721 717 714 712 710 708 706 705 703 702 701 699 698 695 694 693 692 691 691 690 691 692 693 694 693 692 692 692 693 694 695 695 696 697 699 701 702 704 707 709 711 714 715 716 717 718 719 721 722 723 724 725 725 724 724 725 728 732 736 740 746 750 752 753 754 756 757 758 758 758 759 762 764 766 768 769 768 769 770 771 773 774 776 778
725 722 718 715 713 711 709 707 705 703 702 700 698 696 695 693 691 690 689 688 688 687 687 688 688 687 688 689 689 689 690 691 692 693 694 695 697 699 701 704 706 708 710 712 713 715 716 717 718 719 719 720 722 723 724 724 724 726 730 733 736 739 742 744 746 748 748 750 752 752 752 754 757 760 762 765 765 764 765 767 768 769 770 771 773
726 723 719 716 714 711 709 707 705 703 701 699 697 696 694 693 690 688 687 686 685 684 684 684 684 684 684 684 685 686 686 686 687 689 690 691 693 695 698 700 703 705 707 708 710 711 713 714 715 715 716 717 718 720 722 724 726 727 729 730 731 732 734 737 739 741 742 743 745 746 747 750 753 756 758 759 759 760 761 763 764 765 766 767 768
728 724 721 718 715 712 710 708 705 703 701 699 697 695 693 692 690 688 685 684 682 681 681 681 680 680 680 679 680 682 681 681 682 683 685 687 689 691 693 695 698 700 701 702 705 707 709 711 712 712 713 715 716 717 719 720 722 724 725 726 726 727 729 732 735 736 737 737 738 740 742 745 747 750 752 752 753 755 757 758 760 762 763 764 763
728 725 722 719 717 714 711 709 706 703 701 698 696 694 693 692 690 687 685 683 681 679 678 678 678 677 677 676 676 677 677 677 678 679 681 683 684 685 687 689 691 692 693 695 699 702 704 706 707 708 709 710 711 712 713 715 717 718 720 721 722 723 725 727 729 729 729 730 732 735 738 740 741 743 745 746 747 749 751 753 755 758 759 760 758
728 726 723 721 718 716 713 710 708 705 701 698 695 692 690 690 689 686 683 680 679 678 677 675 676 676 676 674 673 673 674 675 676 678 680 681 682 683 684 685 687 688 690 692 695 696 696 697 699 701 702 704 705 706 708 710 711 713 715 716 717 719 720 721 721 721 721 723 726 730 733 735 736 738 739 740 741 743 745 747 749 752 754 754 753
732 728 725 723 720 717 715 712 709 706 703 700 696 691 687 684 682 681 679 677 675 675 674 673 672 673 673 672 671 671 672 674 675 677 678 679 681 682 683 684 685 687 688 691 693 693 691 691 692 694 696 697 699 701 703 705 706 708 710 712 712 713 715 716 715 715 715 717 720 724 726 728 730 732 733 733 735 738 740 741 743 745 747 747 748
736 732 729 726 722 719 716 713 711 708 705 701 697 694 689 683 677 673 671 671 670 669 668 667 668 668 669 669 669 670 671 672 674 675 676 677 678 680 681 683 684 685 687 689 689 688 688 687 687 688 690 692 694 696 699 700 702 703 705 706 706 707 708 708 709 710 711 712 714 716 718 721 723 725 726 727 729 732 735 736 737 738 740 741 742
738 735 732 729 725 722 719 716 713 710 707 703 699 695 692 688 680 672 665 663 662 661 660 660 660 661 663 664 665 666 668 669 671 672 674 675 676 677 679 681 682 684 686 686 685 684 685 686 685 685 686 688 689 692 694 696 697 699 700 700 701 701 702 703 704 705 707 707 708 709 711 714 716 719 721 723 724 726 728 731 732 733 733 734 735
739 737 735 731 728 724 721 719 715 712 708 705 701 697 693 689 685 677 668 660 656 653 651 650 651 653 655 657 659 661 663 665 668 669 671 672 673 675 677 679 680 682 682 682 682 683 684 684 683 683 683 684 686 688 690 691 693 694 695 695 695 696 697 698 698 700 701 702 703 704 705 707 710 712 715 717 719 721 723 725 727 728 728 728 728
739 737 735 732 729 726 723 720 716 713 710 706 702 698 693 688 683 676 666 658 653 649 645 642 642 644 647 649 651 654 657 660 663 665 667 669 671 672 674 675 676 677 678 678 679 680 681 681 680 681 681 681 682 683 685 686 688 689 690 690 690 691 692 692 692 694 695 696 697 698 700 702 704 706 709 711 713 715 717 719 720 721 721 722 722
739 736 734 732 729 725 722 719 716 713 710 706 701 697 692 686 680 670 659 651 648 646 642 638 637 638 639 642 645 649 652 655 658 660 663 665 667 669 670 671 672 673 674 675 675 676 677 677 676 676 676 677 678 679 680 681 682 683 684 685 685 686 687 687 687 688 689 690 691 693 695 696 698 701 704 706 708 710 712 714 716 716 717 717 716
740 737 735 732 729 725 722 719 716 713 709 705 700 695 689 683 677 668 655 646 643 643 640 637 636 636 638 640 643 646 650 653 655 657 659 661 663 664 665 667 668 669 670 670 671 671 672 672 671 671 671 671 672 673 674 675 676 677 677 678 679 680 681 681 683 683 684 684 685 687 689 690 692 695 698 700 702 705 707 709 710 711 712 713 712
741 738 736 733 730 726 723 719 716 712 708 704 700 695 689 684 678 670 660 650 644 640 638 637 638 640 641 642 644 645 647 649 651 653 655 657 658 660 661 663 665 665 665 666 667 667 667 667 667 667 667 667 668 669 669 670 670 671 671 672 673 674 675 676 678 679 679 680 680 682 683 684 686 689 692 694 695 697 699 700 701 702 704 707 708
741 739 737 734 731 727 724 721 717 713 709 705 701 696 692 687 681 674 667 659 651 646 642 641 641 644 645 644 643 644 645 646 648 650 651 653 654 656 658 660 661 661 662 662 662 663 663 663 663 663 664 664 665 665 666 665 666 667 668 669 670 670 671 672 673 674 674 675 676 677 678 679 680 683 686 687 689 690 692 692 693 695 696 698 699
742 739 737 734 732 729 726 722 719 715 711 707 703 699 695 690 685 680 675 669 662 657 652 648 646 647 647 645 644 644 645 646 648 649 650 652 653 654 656 657 658 658 659 659 659 659 659 659 659 660 660 661 661 661 662 662 663 664 665 666 667 666 666 667 668 668 669 670 671 671 672 673 675 678 680 681 682 684 685 685 686 688 691 691 691
743 741 738 735 733 730 727 723 720 717 713 710 706 702 697 693 689 685 682 676 670 665 661 656 652 651 650 648 647 647 648 649 650 652 652 653 654 655 656 657 657 657 657 656 656 656 655 655 656 656 656 656 656 657 658 658 659 660 660 661 661 662 661 661 662 662 663 664 665 666 667 668 670 672 673 674 675 678 679 681 682 685 687 688 689
745 742 739 737 734 731 728 725 721 718 715 712 708 704 701 697 693 690 686 681 674 670 666 662 657 654 652 651 650 650 651 653 654 655 656 657 657 657 657 657 657 657 656 655 654 654 653 653 653 653 653 653 653 653 653 653 653 654 654 655 655 656 656 656 657 657 657 658 660 661 662 663 664 665 665 666 669 671 674 676 678 680 680 681 682
746 743 741 738 736 733 730 727 724 720 717 713 710 707 704 700 697 693 689 684 679 675 672 668 664 661 658 657 656 655 656 657 659 659 660 660 660 660 660 659 658 657 656 654 653 652 651 651 650 650 650 650 649 649 649 649 649 649 649 649 649 650 651 652 652 652 652 653 655 656 657 658 659 659 661 663 665 667 669 670 672 674 674 674 674
747 745 742 739 737 735 732 729 726 723 719 716 712 709 706 702 698 695 691 687 684 681 678 676 672 668 665 663 662 661 661 662 663 663 663 663 663 664 663 662 661 659 657 655 654 652 651 650 649 648 647 647 647 646 647 647 646 646 645 645 645 645 646 646 647 647 648 649 650 651 652 653 654 655 656 659 661 662 664 665 666 667 668 668 669
747 745 743 740 738 736 733 730 728 725 721 718 715 711 708 705 702 698 695 692 689 686 684 681 678 675 672 670 669 668 668 667 667 666 666 666 667 667 666 665 663 661 660 658 656 654 653 651 650 649 647 646 645 645 644 644 643 642 642 642 643 642 642 642 642 643 644 645 645 646 648 648 649 650 651 653 655 656 657 657 658 659 661 662 663
748 746 744 742 739 737 735 732 729 726 723 721 718 714 711 708 705 702 700 697 694 691 689 686 683 681 679 678 676 675 674 673 672 671 671 670 670 670 669 667 665 664 662 660 659 657 655 653 652 650 649 647 646 645 643 642 641 641 641 640 640 640 640 640 640 640 640 640 641 642 643 643 644 645 646 648 649 650 651 651 652 653 655 656 657
749 747 745 743 740 738 736 734 731 728 726 723 721 718 715 712 709 706 704 701 699 696 694 691 689 687 686 684 682 681 679 678 677 675 674 673 673 672 671 669 668 666 664 662 660 658 657 655 653 652 650 648 646 645 643 641 640 640 640 640 639 637 637 637 637 637 637 637 637 637 638 638 638 639 641 642 644 645 646 647 648 649 650 651 653
750 748 746 744 742 740 738 736 733 731 728 726 724 721 719 716 713 710 708 705 703 701 699 697 695 693 691 690 688 686 684 683 681 679 678 676 675 674 673 672 671 668 666 664 662 660 658 656 655 653 651 649 646 645 643 641 639 639 639 639 638 636 634 633 633 633 633 633 633 633 633 633 633 634 635 637 638 639 640 642 643 644 646 647 648
751 749 747 746 744 742 740 738 736 733 731 729 727 724 722 720 717 715 712 710 708 706 704 702 700 698 696 694 692 690 688 686 684 683 681 680 678 677 675 674 672 670 667 665 663 662 660 658 655 653 652 650 648 646 644 642 639 638 637 638 637 635 633 631 630 630 630 630 629 629 629 629 629 630 630 631 633 634 635 636 637 639 641 642 643
752 751 749 747 745 743 741 740 738 736 734 732 730 727 725 723 721 719 716 714 712 711 709 707 704 702 700 697 695 693 691 689 687 686 684 682 680 678 676 675 673 671 669 667 665 663 661 659 656 654 653 651 649 647 645 643 640 638 636 636 637 635 632 629 628 627 627 626 626 626 625 625 625 626 626 627 628 629 630 631 633 634 636 637 638
753 752 750 748 746 745 743 741 740 738 736 734 732 731 729 726 724 722 720 718 716 714 712 710 707 705 703 701 699 696 694 693 691 689 687 684 682 680 678 676 674 672 670 668 666 665 663 660 658 656 653 652 650 648 646 644 641 639 637 636 636 634 631 628 625 624 623 623 622 622 621 622 622 622 623 624 625 626 627 628 629 630 632 633 634